Regional Weather Roundup
Issued by NWS Sterling, VA

Home | Current Version | Previous Version | Text Only | Print | Product List | Glossary On
Versions: 1 2 3 4 5 6 7 8 9 10 11 12 13 14 15 16 17 18 19 20 21 22 23 24 25 26 27 28 29 30 31 32 33 34 35 36 37 38 39 40 41 42 43 44 45 46 47 48 49 50
000
ASUS41 KLWX 060010
RWRLWX

REGIONAL WEATHER ROUNDUP
NATIONAL WEATHER SERVICE BALTIMORE MD/WASHINGTON DC
800 PM EDT TUE MAY 05 2015

Note: "FAIR" indicates few or no clouds below 12,000 feet
with no significant weather and/or obstructions to visibility.
 TC=TEMPERATURE CELSIUS

 * =Non NWS site. Station does not report precipitation (e.g. rain,
    snow, etc.), thunder, or fog.

DCZ001-MDZ009-015-VAZ040>042-051-053>054-060100-
WASHINGTON METRO

CITY           SKY/WX    TMP DP  RH WIND       PRES   REMARKS
WASHINGTON NAT LGT RAIN  71  64  78 SE6       30.21R
DULLES         CLOUDY    70  64  83 S5        30.21R
ANDREWS AFB    LGT RAIN  67  66  94 S7        30.21R
QUANTICO       CLOUDY    68  63  84 SW6       30.22S
COLLEGE PARK*  CLOUDY    70  68  94 CALM      30.21R
LEESBURG*      MOCLDY    70  63  78 S5        30.22R
MANASSAS*      CLEAR     68  66  94 CALM      30.21R
GAITHERSBURG*  PTCLDY    70  61  73 S5        30.25R

$$

MDZ006>007-011-014-060100-
BALTIMORE METRO

CITY           SKY/WX    TMP DP  RH WIND       PRES   REMARKS
BWI AIRPORT    CLOUDY    68  64  87 S3        30.19R
MD SCIENCE CTR   N/A     73  61  65 MISG      30.19R
MARTIN STATE   CLOUDY    75  63  64 SW10      30.20R
ANNAPOLIS      LGT RAIN  68  63  84 S7        30.19R
FORT MEADE*      N/A     64  63  94 CALM      30.22S

$$

MDZ012-015-019>023-060100-
MARYLAND EASTERN SHORE

CITY           SKY/WX    TMP DP  RH WIND       PRES   REMARKS
OCEAN CITY     CLEAR     67  54  63 SW10      30.22R
SALISBURY      CLEAR     72  57  59 S6        30.21R
BAY BRIDGE AP* HVY RAIN N/A N/A N/A SW10      30.21R
CAMBRIDGE*     CLEAR     77  59  53 S7        30.20R
EASTON*        PTCLDY    77  61  57 S7        30.23R

$$

MDZ017>025-060100-
SOUTHERN MARYLAND

CITY           SKY/WX    TMP DP  RH WIND       PRES   REMARKS
PATUXENT RIVER MOCLDY    67  61  81 CALM      30.19R
ST INIGOES     MOCLDY    74  62  66 CALM      30.19R
LEONARDTOWN*   CLOUDY    73  59  60 W13G20    30.24R

$$

MDZ003>005-060100-
NORTH CENTRAL MARYLAND

CITY           SKY/WX    TMP DP  RH WIND       PRES   REMARKS
FREDERICK*     CLEAR     75  57  53 SW6       30.22R
HAGERSTOWN APT PTCLDY    76  57  51 SW5       30.20R
WESTMINSTER*   PTCLDY    75  61  60 CALM      30.20R

$$

MDZ501>502-060100-
WESTERN MARYLAND

CITY           SKY/WX    TMP DP  RH WIND       PRES   REMARKS
OAKLAND*       PTCLDY    66  57  72 CALM      30.29S
CUMBERLAND*    PTCLDY    77  55  47 CALM      30.23R

$$

VAZ025>031-060100-
SHENANDOAH VALLEY

CITY           SKY/WX    TMP DP  RH WIND       PRES   REMARKS
WINCHESTER*    MOCLDY    72  55  56 CALM      30.21R
FRONT ROYAL*   FAIR      66  59  77 SW6       30.21R
LURAY*         RAIN      66  63  88 W6        30.23F
NEW MARKET*    FAIR      64  62  94 CALM      30.22S
STAUNTON*      CLOUDY    70  60  71 NE3       30.25S
WAYNESBORO*    MOCLDY    70  60  69 SE3       30.25R

$$

WVZ021-048>050-054>055-060100-
EASTERN WEST VIRGINIA PANHANDLE

CITY           SKY/WX    TMP DP  RH WIND       PRES   REMARKS
MARTINSBURG    PTCLDY    72  63  73 CALM      30.20R
PETERSBURG*    MOCLDY    67  60  76 CALM      30.22S

$$

VAZ036>039-050-060100-
CENTRAL FOOTHILLS

CITY           SKY/WX    TMP DP  RH WIND       PRES   REMARKS
CHARLOTTESVILL CLOUDY    70  63  78 N8        30.22R
CULPEPER*      MOCLDY    67  63  88 NW5       30.24R
ORANGE*        CLOUDY    68  64  88 CALM      30.24R
GORDONSVILLE*  CLOUDY    65  64  97 CALM      30.22S
WARRENTON*     FAIR      67  66  96 CALM      30.22R

$$

VAZ055>057-060100-
NORTH AND CENTRAL PIEDMONT

CITY           SKY/WX    TMP DP  RH WIND       PRES   REMARKS
FREDERICKSBRG* LGT RAIN  68  68 100 E5        30.22S
STAFFORD*      CLOUDY    65  50  58 S5        30.26S

$$

NCZ024-NYZ072-PAZ021-071-VAZ022-071-060100-
OTHER REGIONAL OBSERVATIONS

CITY           SKY/WX    TMP DP  RH WIND       PRES   REMARKS
NEW YORK CITY  CLOUDY    73  51  46 VRB3      30.19R
PHILADELPHIA   MOCLDY    81  55  40 W10       30.17R
PITTSBURGH     CLOUDY    73  58  59 NW5       30.22R
ROANOKE        PTCLDY    77  53  43 SW6       30.24R
RICHMOND       PTCLDY    77  57  50 S8        30.21R
RALEIGH        PTCLDY    75  54  47 S8        30.23F

$$

ANZ530>537-060100-
MARINE OBSERVATIONS

STATION/POSITION TIME  TEMP    WIND        PRES
                       AIR SEA DIR/SP/G
                 (UTC) (F)     (DEG/KT/KT) (MB)
THOMAS PT LIGHT  0000   68 62  200/  5/  7 1023.5R
BALT KEY BRIDGE  2300   74     160/  6/  7 1021.2F
COVE POINT       2300   67     190/ 10/ 11 1022.7F
LEWISETTA        2300   80 66              1021.6S
SOLOMONS ISLAND  2300      63                N/A
PINEY POINT      2300          150/  4/  4   N/A

$$



USA.gov is the U.S. government's official web portal to all federal, state and local government web resources and services.